WXM80 ListenWXM80 Stop

You find our weather info also at:

UK Metoffice

WeatherCloud

Weather Underground

Northeastern Weather Network

AWEKAS

Citizen Weather Observer Program (CWOP)

HAMweather, WeatherForYou, PWS Weather


Weather Underground History page Text

Daily Summary for October 6, 2017 Units:  Metric    English   Both
« Previous Day
Next Day »
Daily Weekly Monthly Yearly Custom
  High: Low: Average:
Temperature: 26.9 °C 18.6 °C 21.9 °C
Dew Point: 19.7 °C 17.4 °C 18.4 °C
Humidity: 95 % 58 % 82 %
Wind Speed: 6.1 km/h 0 km/h 1 km/h
Wind Gust: 13 km/h - -
Wind:- - SSW
Pressure: 1018.2 hPa 1015.8 hPa -
Precipitation: 0 mm    
Historical Graphs
 
 
Tabular Data for October 6, 2017
Time Temperature Dew Point Pressure Wind Wind Speed Wind Gust Humidity Rainfall Rate (Hourly)
00:01 22.3 °C 18.7 °C 1016.8 hPa WSW 3.5 km/h 5.6 km/h 80 % 0 mm
00:06 22.2 °C 18.6 °C 1016.8 hPa SW 2.6 km/h 13 km/h 80 % 0 mm
00:12 21.9 °C 18.6 °C 1016.8 hPa WSW 2.6 km/h 9.3 km/h 81 % 0 mm
00:17 21.8 °C 18.4 °C 1016.8 hPa SSW 4.7 km/h 9.7 km/h 81 % 0 mm
00:22 21.7 °C 18.3 °C 1016.5 hPa WSW 2.9 km/h 5.6 km/h 81 % 0 mm
00:27 21.6 °C 18.2 °C 1016.5 hPa SW 3.1 km/h 8 km/h 81 % 0 mm
00:32 21.5 °C 18.1 °C 1016.5 hPa WSW 3.1 km/h 5.6 km/h 81 % 0 mm
00:37 21.4 °C 17.8 °C 1016.5 hPa WSW 1.9 km/h 7.4 km/h 80 % 0 mm
00:42 21.3 °C 17.7 °C 1016.5 hPa SW 3.7 km/h 7.4 km/h 80 % 0 mm
00:47 21.3 °C 17.9 °C 1016.5 hPa SW 0.5 km/h 1.9 km/h 81 % 0 mm
00:52 21.3 °C 17.9 °C 1016.5 hPa SW 0.8 km/h 3.7 km/h 81 % 0 mm
00:57 21.3 °C 17.9 °C 1016.5 hPa SW 1.1 km/h 3.7 km/h 81 % 0 mm
01:02 21.3 °C 17.9 °C 1016.8 hPa SW 0.3 km/h 1.9 km/h 81 % 0 mm
01:07 21.3 °C 18.1 °C 1016.8 hPa WSW 2.1 km/h 6.4 km/h 82 % 0 mm
01:12 21.3 °C 18.3 °C 1016.8 hPa Calm   1.9 km/h 83 % 0 mm
01:17 21.2 °C 18.2 °C 1016.5 hPa WSW 0.5 km/h 1.9 km/h 83 % 0 mm
01:22 21.2 °C 18.4 °C 1016.5 hPa WSW 1.4 km/h 5.6 km/h 84 % 0 mm
01:27 21.2 °C 18.4 °C 1016.5 hPa WSW 2.6 km/h 5.6 km/h 84 % 0 mm
01:37 21.2 °C 18.6 °C 1016.8 hPa SW 0.2 km/h 3.7 km/h 85 % 0 mm
01:42 21.2 °C 18.6 °C 1016.8 hPa Calm   1.9 km/h 85 % 0 mm
01:47 21.2 °C 18.7 °C 1016.8 hPa WSW 2.3 km/h 5.6 km/h 86 % 0 mm
01:52 21.2 °C 18.7 °C 1016.8 hPa WSW 0.3 km/h 1.6 km/h 86 % 0 mm
01:58 21.1 °C 18.7 °C 1016.8 hPa WSW 1 km/h 4.8 km/h 86 % 0 mm
02:03 21.1 °C 18.7 °C 1017.2 hPa WSW 0.6 km/h 1.9 km/h 86 % 0 mm
02:08 21.1 °C 18.6 °C 1017.2 hPa Calm     86 % 0 mm
02:13 21.1 °C 18.6 °C 1016.8 hPa WSW 1.4 km/h 5.6 km/h 86 % 0 mm
02:28 20.9 °C 18.9 °C 1016.8 hPa SW 1.4 km/h 5.6 km/h 88 % 0 mm
02:33 20.9 °C 18.9 °C 1016.8 hPa Calm   1.9 km/h 88 % 0 mm
02:38 20.9 °C 18.9 °C 1016.8 hPa Calm     88 % 0 mm
02:43 20.9 °C 18.8 °C 1016.8 hPa Calm     88 % 0 mm
02:53 20.8 °C 18.7 °C 1016.5 hPa Calm     88 % 0 mm
02:58 20.8 °C 18.7 °C 1016.8 hPa Calm   1.6 km/h 88 % 0 mm
03:03 20.7 °C 18.7 °C 1016.5 hPa SW 0.2 km/h 1.6 km/h 88 % 0 mm
03:08 20.7 °C 18.6 °C 1016.5 hPa SSW 0.5 km/h 3.2 km/h 88 % 0 mm
03:13 20.6 °C 18.7 °C 1016.5 hPa Calm     89 % 0 mm
03:18 20.6 °C 18.5 °C 1016.5 hPa Calm     88 % 0 mm
03:23 20.5 °C 18.6 °C 1016.5 hPa SSW 0.5 km/h 1.9 km/h 89 % 0 mm
03:28 20.4 °C 18.6 °C 1016.5 hPa Calm   1.9 km/h 89 % 0 mm
03:33 20.4 °C 18.5 °C 1016.5 hPa Calm     89 % 0 mm
03:38 20.3 °C 18.4 °C 1016.5 hPa Calm   1.9 km/h 89 % 0 mm
03:43 20.3 °C 18.6 °C 1016.5 hPa SSW 0.3 km/h 3.7 km/h 90 % 0 mm
03:48 20.2 °C 18.6 °C 1016.5 hPa SSW 1.1 km/h 3.7 km/h 90 % 0 mm
03:53 20.2 °C 18.7 °C 1016.8 hPa SW 1.1 km/h 6.4 km/h 91 % 0 mm
03:58 20.2 °C 18.7 °C 1016.8 hPa WSW 4 km/h 5.6 km/h 91 % 0 mm
04:03 20.2 °C 18.7 °C 1016.8 hPa WSW 0.3 km/h 5.6 km/h 91 % 0 mm
04:08 20.1 °C 18.6 °C 1017.2 hPa WSW 0.8 km/h 3.7 km/h 91 % 0 mm
04:13 20.1 °C 18.6 °C 1017.2 hPa WSW 0.3 km/h 1.9 km/h 91 % 0 mm
04:18 20.1 °C 18.6 °C 1017.2 hPa Calm   1.9 km/h 91 % 0 mm
04:23 20.1 °C 18.6 °C 1017.2 hPa Calm     91 % 0 mm
04:28 20.1 °C 18.6 °C 1017.2 hPa Calm     91 % 0 mm
04:34 20.1 °C 18.6 °C 1017.2 hPa Calm   1.9 km/h 91 % 0 mm
04:39 20.1 °C 18.7 °C 1016.8 hPa Calm     92 % 0 mm
04:44 20.1 °C 18.7 °C 1017.2 hPa Calm     92 % 0 mm
04:49 20.1 °C 18.7 °C 1017.2 hPa Calm     92 % 0 mm
04:54 20 °C 18.7 °C 1017.2 hPa Calm     92 % 0 mm
04:59 20 °C 18.7 °C 1016.8 hPa Calm     92 % 0 mm
05:04 19.9 °C 18.6 °C 1016.8 hPa Calm     92 % 0 mm
05:09 19.9 °C 18.4 °C 1016.8 hPa Calm     91 % 0 mm
05:14 19.9 °C 18.4 °C 1017.2 hPa Calm     91 % 0 mm
05:19 19.8 °C 18.5 °C 1017.2 hPa WSW 0.2 km/h 1.9 km/h 92 % 0 mm
05:24 19.8 °C 18.3 °C 1017.2 hPa Calm   1.9 km/h 91 % 0 mm
05:29 19.8 °C 18.4 °C 1017.2 hPa WSW 0.6 km/h 1.9 km/h 92 % 0 mm
05:39 19.7 °C 18.3 °C 1017.2 hPa WNW 1 km/h 3.2 km/h 92 % 0 mm
05:49 19.5 °C 18.2 °C 1017.5 hPa Calm     92 % 0 mm
05:54 19.4 °C 18.1 °C 1017.5 hPa WNW 0.2 km/h 1.9 km/h 92 % 0 mm
05:59 19.4 °C 18.1 °C 1017.5 hPa Calm     92 % 0 mm
06:04 19.3 °C 18 °C 1017.5 hPa WNW 0.5 km/h 1.9 km/h 92 % 0 mm
06:10 19.3 °C 18.1 °C 1017.5 hPa WNW 0.2 km/h 1.9 km/h 93 % 0 mm
06:15 19.2 °C 18.1 °C 1017.8 hPa WNW 0.5 km/h 1.9 km/h 93 % 0 mm
06:20 19.2 °C 18.1 °C 1017.5 hPa Calm   1.9 km/h 93 % 0 mm
06:25 19.2 °C 18 °C 1017.5 hPa Calm     93 % 0 mm
06:30 19.1 °C 17.9 °C 1017.5 hPa Calm     93 % 0 mm
06:35 19.1 °C 17.9 °C 1017.5 hPa Calm     93 % 0 mm
06:40 19 °C 17.8 °C 1017.5 hPa Calm     93 % 0 mm
06:45 18.9 °C 17.8 °C 1017.8 hPa Calm     93 % 0 mm
06:50 18.8 °C 17.7 °C 1017.8 hPa Calm     93 % 0 mm
06:55 18.8 °C 17.7 °C 1017.8 hPa WNW 1.1 km/h 3.7 km/h 93 % 0 mm
07:00 18.8 °C 17.6 °C 1017.8 hPa WNW 0.5 km/h 1.9 km/h 93 % 0 mm
07:05 18.7 °C 17.6 °C 1017.8 hPa Calm     93 % 0 mm
07:10 18.7 °C 17.6 °C 1017.8 hPa Calm     93 % 0 mm
07:15 18.7 °C 17.7 °C 1018.2 hPa Calm   1.9 km/h 94 % 0 mm
07:20 18.7 °C 17.7 °C 1018.2 hPa Calm     94 % 0 mm
07:25 18.7 °C 17.7 °C 1018.2 hPa Calm     94 % 0 mm
07:30 18.6 °C 17.6 °C 1018.2 hPa Calm     94 % 0 mm
07:35 18.6 °C 17.6 °C 1018.2 hPa Calm     94 % 0 mm
07:41 18.6 °C 17.6 °C 1018.2 hPa Calm     94 % 0 mm
07:46 18.6 °C 17.6 °C 1018.2 hPa Calm     94 % 0 mm
07:56 18.7 °C 17.8 °C 1018.2 hPa Calm     95 % 0 mm
08:01 18.7 °C 17.8 °C 1018.2 hPa Calm     95 % 0 mm
08:06 18.7 °C 17.9 °C 1018.2 hPa Calm     95 % 0 mm
08:11 18.8 °C 17.9 °C 1018.2 hPa Calm     95 % 0 mm
08:16 18.8 °C 17.9 °C 1018.2 hPa Calm     95 % 0 mm
08:21 18.8 °C 18 °C 1018.2 hPa Calm     95 % 0 mm
08:26 18.9 °C 18.1 °C 1018.2 hPa Calm     95 % 0 mm
08:31 18.9 °C 18.1 °C 1018.2 hPa Calm   1.9 km/h 95 % 0 mm
08:32 18.9 °C 18.1 °C 1018.2 hPa Calm     95 % 0 mm
08:37 18.9 °C 18.1 °C 1018.2 hPa West 0.2 km/h 1.9 km/h 95 % 0 mm
08:42 18.9 °C 18.1 °C 1018.2 hPa Calm     95 % 0 mm
08:47 19.1 °C 18.2 °C 1018.2 hPa WNW 0.3 km/h 3.7 km/h 95 % 0 mm
08:52 19.1 °C 18.2 °C 1018.2 hPa West 1 km/h 3.7 km/h 95 % 0 mm
08:57 19.1 °C 18.3 °C 1018.2 hPa West 1.6 km/h 3.7 km/h 95 % 0 mm
09:02 19.1 °C 18.1 °C 1018.2 hPa WSW 1.3 km/h 3.7 km/h 94 % 0 mm
09:07 19.1 °C 17.9 °C 1018.2 hPa Calm     93 % 0 mm
09:17 19.2 °C 17.9 °C 1018.2 hPa Calm   1.9 km/h 92 % 0 mm
09:23 19.2 °C 17.7 °C 1018.2 hPa WSW 1.6 km/h 3.2 km/h 91 % 0 mm
09:28 19.3 °C 17.8 °C 1018.2 hPa WNW 0.2 km/h 1.9 km/h 91 % 0 mm
09:33 19.4 °C 17.7 °C 1018.2 hPa WNW 2.4 km/h 5.6 km/h 90 % 0 mm
09:38 19.4 °C 17.6 °C 1018.2 hPa NW 3.7 km/h 6.4 km/h 89 % 0 mm
09:43 19.6 °C 17.5 °C 1018.2 hPa West 1.8 km/h 5.6 km/h 88 % 0 mm
09:48 19.7 °C 17.6 °C 1018.2 hPa West 2.4 km/h 5.6 km/h 88 % 0 mm
09:53 19.8 °C 17.9 °C 1018.2 hPa North 2.1 km/h 5.6 km/h 89 % 0 mm
09:58 19.9 °C 17.9 °C 1018.2 hPa North 2.1 km/h 5.6 km/h 88 % 0 mm
10:03 20.2 °C 18.3 °C 1018.2 hPa WNW 1.9 km/h 5.6 km/h 89 % 0 mm
10:08 20.3 °C 18.2 °C 1018.2 hPa WNW 0.2 km/h 1.9 km/h 88 % 0 mm
10:13 20.4 °C 18.2 °C 1018.2 hPa NW 1.1 km/h 5.6 km/h 87 % 0 mm
10:18 20.6 °C 18.2 °C 1018.2 hPa North 5.3 km/h 11.1 km/h 86 % 0 mm
10:23 20.8 °C 18.2 °C 1018.2 hPa NW 2.7 km/h 7.4 km/h 85 % 0 mm
10:28 21.1 °C 18.2 °C 1018.2 hPa North 3.5 km/h 5.6 km/h 84 % 0 mm
10:33 21.2 °C 18 °C 1018.2 hPa NE 5.8 km/h 9.3 km/h 82 % 0 mm
10:38 21.4 °C 18 °C 1018.2 hPa North 4.5 km/h 9.3 km/h 81 % 0 mm
10:43 21.6 °C 18.3 °C 1018.2 hPa NW 2.7 km/h 5.6 km/h 82 % 0 mm
10:48 21.7 °C 18.4 °C 1018.2 hPa North 4.5 km/h 6.4 km/h 82 % 0 mm
10:53 21.8 °C 18.4 °C 1018.2 hPa North 2.9 km/h 6.4 km/h 81 % 0 mm
10:58 21.8 °C 18 °C 1018.2 hPa NW 1.8 km/h 3.7 km/h 79 % 0 mm
11:03 21.9 °C 18.3 °C 1017.8 hPa NNW 3.1 km/h 4.8 km/h 80 % 0 mm
11:08 22.1 °C 18.7 °C 1017.8 hPa NW 3.2 km/h 5.6 km/h 81 % 0 mm
11:13 22.3 °C 18.3 °C 1017.8 hPa WNW 3.1 km/h 5.6 km/h 78 % 0 mm
11:18 22.6 °C 19 °C 1017.8 hPa North 0.3 km/h 3.7 km/h 80 % 0 mm
11:23 23 °C 19.2 °C 1017.8 hPa NNE 2.4 km/h 4.8 km/h 79 % 0 mm
11:34 23.5 °C 18.2 °C 1017.8 hPa NNW 1.9 km/h 5.6 km/h 72 % 0 mm
11:39 23.7 °C 18.9 °C 1017.8 hPa North 2.1 km/h 5.6 km/h 75 % 0 mm
11:44 23.9 °C 18.9 °C 1017.8 hPa North 2.3 km/h 5.6 km/h 74 % 0 mm
11:49 24.1 °C 19.2 °C 1017.8 hPa North 1.9 km/h 5.6 km/h 74 % 0 mm
11:54 24.3 °C 18.5 °C 1017.8 hPa North 1.4 km/h 3.7 km/h 70 % 0 mm
11:59 24.8 °C 18.7 °C 1017.8 hPa NNW 2.9 km/h 5.6 km/h 69 % 0 mm
12:04 25.1 °C 18.7 °C 1017.8 hPa NW 1 km/h 3.7 km/h 68 % 0 mm
12:14 25.5 °C 18.9 °C 1017.8 hPa NNW 3.1 km/h 5.6 km/h 67 % 0 mm
12:19 25.7 °C 18.6 °C 1017.8 hPa Calm   1.9 km/h 65 % 0 mm
12:24 25.8 °C 18.9 °C 1017.8 hPa NNW 1.8 km/h 3.7 km/h 66 % 0 mm
12:29 25.7 °C 19.3 °C 1017.5 hPa North 0.3 km/h 3.7 km/h 68 % 0 mm
12:34 25.7 °C 18.9 °C 1017.5 hPa NNE 5 km/h 9.7 km/h 66 % 0 mm
12:39 25.8 °C 18.4 °C 1017.5 hPa WNW 3.1 km/h 7.4 km/h 64 % 0 mm
12:44 25.8 °C 18.8 °C 1017.5 hPa North 1.3 km/h 5.6 km/h 65 % 0 mm
12:49 26 °C 18.9 °C 1017.5 hPa NNW 1.6 km/h 7.4 km/h 65 % 0 mm
12:54 26.2 °C 19.1 °C 1017.5 hPa North 1.1 km/h 5.6 km/h 65 % 0 mm
12:59 26.3 °C 18.7 °C 1017.2 hPa North 6.1 km/h 9.3 km/h 63 % 0 mm
13:06 26.6 °C 18.4 °C 1017.2 hPa NNE 5.3 km/h 9.3 km/h 61 % 0 mm
13:11 26.7 °C 18.5 °C 1017.5 hPa NNE 4.3 km/h 9.3 km/h 61 % 0 mm
13:16 26.8 °C 18.4 °C 1017.2 hPa NNW 2.1 km/h 5.6 km/h 60 % 0 mm
13:21 26.9 °C 18.8 °C 1017.2 hPa NNW 2.1 km/h 9.3 km/h 61 % 0 mm
13:26 26.9 °C 19 °C 1016.8 hPa NNE 5.5 km/h 6.4 km/h 62 % 0 mm
13:31 26.8 °C 19.7 °C 1017.2 hPa NNE 2.4 km/h 6.4 km/h 65 % 0 mm
13:36 26.8 °C 19.7 °C 1016.8 hPa NE 1.3 km/h 3.7 km/h 65 % 0 mm
13:41 26.8 °C 19.4 °C 1016.8 hPa NNE 1.3 km/h 3.7 km/h 64 % 0 mm
13:46 26.8 °C 19.4 °C 1016.8 hPa NNE 2.3 km/h 2.3 km/h 64 % 0 mm
13:51 26.8 °C 19.7 °C 1016.5 hPa NNE 1.9 km/h 5.6 km/h 65 % 0 mm
13:57 26.8 °C 19.2 °C 1016.5 hPa North 3.5 km/h 4.8 km/h 63 % 0 mm
14:02 26.8 °C 18.9 °C 1016.5 hPa NNE 4.5 km/h 6.4 km/h 62 % 0 mm
14:06 26.8 °C 18.9 °C 1016.8 hPa NNE 1 km/h 5.6 km/h 62 % 0 mm
14:11 26.8 °C 18.4 °C 1016.5 hPa NNW 0.3 km/h 3.7 km/h 60 % 0 mm
14:16 26.8 °C 19.2 °C 1016.5 hPa NNW 0.2 km/h 1.6 km/h 63 % 0 mm
14:21 26.8 °C 18.4 °C 1016.5 hPa North 3.2 km/h 6.4 km/h 60 % 0 mm
14:26 26.8 °C 18.9 °C 1016.5 hPa Calm   6.4 km/h 62 % 0 mm
14:31 26.8 °C 18.6 °C 1016.5 hPa NNE 1.6 km/h 4.8 km/h 61 % 0 mm
14:36 26.7 °C 18.3 °C 1016.5 hPa North 1.6 km/h 6.4 km/h 60 % 0 mm
14:41 26.7 °C 18 °C 1016.5 hPa Calm   4.8 km/h 59 % 0 mm
14:46 26.7 °C 18.3 °C 1016.5 hPa NNW 1.6 km/h 4.8 km/h 60 % 0 mm
14:51 26.8 °C 18.1 °C 1016.5 hPa North 4.8 km/h 9.7 km/h 59 % 0 mm
14:52 26.8 °C 18.1 °C 1016.5 hPa North 3.9 km/h 5.6 km/h 59 % 0 mm
14:57 26.8 °C 18.4 °C 1016.5 hPa Calm   3.7 km/h 60 % 0 mm
15:02 26.8 °C 18.4 °C 1016.1 hPa North 0.2 km/h 1.9 km/h 60 % 0 mm
15:07 26.8 °C 18.4 °C 1016.5 hPa NE 0.6 km/h 1.9 km/h 60 % 0 mm
15:12 26.8 °C 18.4 °C 1016.5 hPa NNE 0.6 km/h 1.9 km/h 60 % 0 mm
15:17 26.7 °C 19.1 °C 1016.5 hPa NNE 0.2 km/h 1.6 km/h 63 % 0 mm
15:22 26.5 °C 18.1 °C 1016.5 hPa NNE 0.6 km/h 3.7 km/h 60 % 0 mm
15:27 26.4 °C 18.3 °C 1016.1 hPa Calm     61 % 0 mm
15:32 26.3 °C 17.9 °C 1016.1 hPa Calm   1.9 km/h 60 % 0 mm
15:42 26.3 °C 17.4 °C 1015.8 hPa Calm     58 % 0 mm
15:47 26.3 °C 18.2 °C 1015.8 hPa West 0.5 km/h 1.9 km/h 61 % 0 mm
15:52 26.2 °C 18.3 °C 1015.8 hPa Calm   1.9 km/h 62 % 0 mm
15:57 26.1 °C 17.7 °C 1015.8 hPa Calm   1.9 km/h 60 % 0 mm
16:02 26 °C 18.2 °C 1016.1 hPa Calm   1.6 km/h 62 % 0 mm
16:07 25.8 °C 17.5 °C 1015.8 hPa North 0.5 km/h 1.9 km/h 60 % 0 mm
16:12 25.7 °C 17.6 °C 1015.8 hPa Calm     61 % 0 mm
16:17 25.7 °C 17.6 °C 1015.8 hPa North 0.3 km/h 1.6 km/h 61 % 0 mm
16:22 25.6 °C 17.5 °C 1015.8 hPa North 0.5 km/h 1.9 km/h 61 % 0 mm
16:27 25.4 °C 17.9 °C 1015.8 hPa Calm     63 % 0 mm
16:32 25.3 °C 17.5 °C 1015.8 hPa Calm     62 % 0 mm
16:37 25.3 °C 17.5 °C 1015.8 hPa Calm     62 % 0 mm
16:42 25.2 °C 17.6 °C 1015.8 hPa Calm   1.6 km/h 63 % 0 mm
16:52 25.1 °C 18 °C 1015.8 hPa Calm     65 % 0 mm
16:57 24.9 °C 17.9 °C 1015.8 hPa NE 0.2 km/h 3.7 km/h 65 % 0 mm
17:02 24.9 °C 18.1 °C 1016.1 hPa Calm   1.9 km/h 66 % 0 mm
17:07 24.8 °C 18.3 °C 1016.1 hPa NE 0.3 km/h 1.6 km/h 67 % 0 mm
17:12 24.8 °C 18.4 °C 1016.1 hPa East 0.8 km/h 3.7 km/h 68 % 0 mm
17:17 24.7 °C 18.8 °C 1015.8 hPa Calm     70 % 0 mm
17:22 24.5 °C 18.7 °C 1015.8 hPa SE 1.8 km/h 7.4 km/h 70 % 0 mm
17:28 24.3 °C 18.7 °C 1015.8 hPa SE 1 km/h 6.4 km/h 71 % 0 mm
17:33 24.2 °C 18.8 °C 1015.8 hPa SE 1.8 km/h 9.3 km/h 72 % 0 mm
17:38 23.9 °C 18.8 °C 1015.8 hPa SSE 1.6 km/h 6.4 km/h 73 % 0 mm
17:43 23.8 °C 18.9 °C 1015.8 hPa SE 1.1 km/h 3.7 km/h 74 % 0 mm
17:48 23.7 °C 18.9 °C 1015.8 hPa Calm   1.9 km/h 75 % 0 mm
17:53 23.6 °C 18.9 °C 1015.8 hPa Calm   1.9 km/h 75 % 0 mm
17:58 23.4 °C 18.8 °C 1016.1 hPa Calm   1.9 km/h 75 % 0 mm
18:03 23.3 °C 18.9 °C 1015.8 hPa SE 0.2 km/h 1.6 km/h 76 % 0 mm
18:08 23.2 °C 18.8 °C 1016.1 hPa Calm   3.7 km/h 76 % 0 mm
18:13 23.1 °C 18.8 °C 1016.1 hPa SE 0.3 km/h 1.9 km/h 77 % 0 mm
18:18 22.9 °C 18.7 °C 1015.8 hPa SE 0.2 km/h 1.9 km/h 77 % 0 mm
18:23 22.8 °C 18.8 °C 1015.8 hPa SE 2.4 km/h 8 km/h 78 % 0 mm
18:28 22.6 °C 18.8 °C 1016.1 hPa SE 3.1 km/h 5.6 km/h 79 % 0 mm
18:33 22.5 °C 18.7 °C 1016.1 hPa Calm     79 % 0 mm
18:38 22.4 °C 18.6 °C 1016.1 hPa Calm     79 % 0 mm
18:43 22.3 °C 18.7 °C 1016.1 hPa Calm     80 % 0 mm
18:48 22.2 °C 18.8 °C 1016.1 hPa Calm     81 % 0 mm
18:53 22.1 °C 18.7 °C 1016.1 hPa SE 1 km/h 6.4 km/h 81 % 0 mm
18:58 21.9 °C 18.7 °C 1016.1 hPa SE 0.2 km/h 1.6 km/h 82 % 0 mm
19:04 21.8 °C 18.8 °C 1016.5 hPa SE 0.2 km/h 3.7 km/h 83 % 0 mm
19:09 21.7 °C 18.7 °C 1016.5 hPa Calm     83 % 0 mm
19:14 21.7 °C 18.7 °C 1016.5 hPa Calm     83 % 0 mm
19:19 21.5 °C 18.7 °C 1016.5 hPa Calm   3.7 km/h 84 % 0 mm
19:24 21.4 °C 18.8 °C 1016.5 hPa Calm     85 % 0 mm
19:29 21.3 °C 18.7 °C 1016.5 hPa Calm     85 % 0 mm
19:34 21.3 °C 18.7 °C 1016.8 hPa Calm   1.9 km/h 85 % 0 mm
19:39 21.2 °C 18.8 °C 1016.8 hPa SE 0.2 km/h 1.9 km/h 86 % 0 mm
19:44 21.2 °C 18.7 °C 1016.8 hPa SE 0.2 km/h 1.9 km/h 86 % 0 mm
19:54 21.1 °C 18.6 °C 1016.8 hPa Calm     86 % 0 mm
19:59 21 °C 18.8 °C 1016.8 hPa Calm   5.6 km/h 87 % 0 mm
20:04 20.9 °C 18.7 °C 1016.8 hPa Calm     87 % 0 mm
20:09 20.9 °C 18.7 °C 1016.5 hPa Calm     87 % 0 mm
20:14 20.8 °C 18.6 °C 1016.8 hPa Calm     87 % 0 mm
20:24 20.8 °C 18.6 °C 1016.8 hPa SE 0.2 km/h 1.6 km/h 87 % 0 mm
20:29 20.7 °C 18.5 °C 1016.8 hPa Calm     87 % 0 mm
20:34 20.7 °C 18.6 °C 1016.8 hPa Calm     88 % 0 mm
20:39 20.7 °C 18.6 °C 1016.8 hPa Calm     88 % 0 mm
20:44 20.6 °C 18.6 °C 1016.8 hPa Calm   1.9 km/h 88 % 0 mm
20:49 20.6 °C 18.5 °C 1016.8 hPa Calm   1.9 km/h 88 % 0 mm
20:55 20.6 °C 18.5 °C 1016.8 hPa SSE 1 km/h 1.9 km/h 88 % 0 mm
21:00 20.5 °C 18.4 °C 1016.8 hPa Calm     88 % 0 mm
21:05 20.5 °C 18.6 °C 1016.8 hPa Calm   1.9 km/h 89 % 0 mm
21:10 20.4 °C 18.6 °C 1017.2 hPa Calm     89 % 0 mm
21:20 20.4 °C 18.6 °C 1017.2 hPa Calm     89 % 0 mm
21:25 20.4 °C 18.3 °C 1017.2 hPa Calm     88 % 0 mm
21:30 20.3 °C 18.4 °C 1017.2 hPa Calm   1.9 km/h 89 % 0 mm
21:35 20.3 °C 18.6 °C 1017.2 hPa Calm     90 % 0 mm
21:40 20.3 °C 18.6 °C 1017.2 hPa Calm     90 % 0 mm
21:45 20.3 °C 18.6 °C 1017.2 hPa Calm     90 % 0 mm
21:50 20.2 °C 18.6 °C 1017.2 hPa Calm     90 % 0 mm
21:55 20.2 °C 18.6 °C 1017.2 hPa Calm     90 % 0 mm
22:00 20.2 °C 18.5 °C 1017.2 hPa Calm     90 % 0 mm
22:05 20.2 °C 18.5 °C 1017.5 hPa Calm     90 % 0 mm
22:10 20.1 °C 18.4 °C 1017.5 hPa Calm     90 % 0 mm
22:15 20.1 °C 18.4 °C 1017.5 hPa SE 0.2 km/h 1.9 km/h 90 % 0 mm
22:20 20.1 °C 18.6 °C 1017.5 hPa SSE 1.1 km/h 3.7 km/h 91 % 0 mm
22:25 20.1 °C 18.6 °C 1017.5 hPa Calm     91 % 0 mm
22:30 20 °C 18.5 °C 1017.5 hPa Calm     91 % 0 mm
22:35 20 °C 18.5 °C 1017.2 hPa Calm     91 % 0 mm
22:40 19.9 °C 18.4 °C 1017.5 hPa Calm     91 % 0 mm
22:46 19.9 °C 18.4 °C 1017.5 hPa Calm     91 % 0 mm
22:51 19.9 °C 18.4 °C 1017.5 hPa Calm     91 % 0 mm
22:56 19.9 °C 18.4 °C 1017.5 hPa Calm     91 % 0 mm
23:01 19.8 °C 18.3 °C 1017.5 hPa Calm     91 % 0 mm
23:06 19.8 °C 18.3 °C 1017.5 hPa Calm     91 % 0 mm
23:16 19.8 °C 18.3 °C 1017.5 hPa Calm     91 % 0 mm
23:21 19.7 °C 18.2 °C 1017.5 hPa Calm     91 % 0 mm
23:25 19.7 °C 18.2 °C 1017.5 hPa Calm     91 % 0 mm
23:30 19.7 °C 18.2 °C 1017.5 hPa Calm     91 % 0 mm
23:35 19.7 °C 18.3 °C 1017.5 hPa Calm     92 % 0 mm
23:36 19.7 °C 18.2 °C 1017.5 hPa Calm   1.6 km/h 91 % 0 mm
23:41 19.7 °C 18.3 °C 1017.5 hPa Calm   1.6 km/h 92 % 0 mm
23:46 19.6 °C 18.3 °C 1017.5 hPa Calm     92 % 0 mm
23:56 19.6 °C 18.2 °C 1017.5 hPa Calm     92 % 0 mm
Crab Meadow Weather
Compliments of Weather Underground - 2.75 mb

Script developed by  Jim McMurry - jmcmurry@mwt.net Adapted for the template by  Wim van der Kuil - Leuven-Template.eu

Weather Terms: Flood Warning (river flood)- A warning for specific communities or areas along a river where flooding is imminent or occurring. Flood warnings normally give specific crest forecasts.